Location: Newark
(44.2003°N, 3.2583°E)
Time: 13:48:40
(UTC+00:00)

Explorer 7 - Pass Details

Date: 24 October 2019
Orbit: 485 x 680 km, 50.3° (Epoch: 20 November)

Event Time Altitude Azimuth Distance (km) Brightness Sun altitude
Rises 11:58:50 0° 279° (W) 2,551 10.2 33.7°
Reaches altitude 10° 12:01:10 10° 289° (WNW) 1,667 9.3 33.6°
Maximum altitude 12:04:34 32° 355° (N) 851 7.6 33.5°
Drops below altitude 10° 12:08:02 10° 60° (ENE) 1,690 9.1 33.4°
Sets 12:10:24 0° 71° (ENE) 2,592 10.0 33.3°
